Location: H�nibach
(46.7462°N, 7.6503°E)
Time: 08:50:02
(UTC+00:00)

Daily predictions for brighter satellites

Satellite Brightness Start Highest point End
(mag) Time Altitude Azimuth Time Altitude Azimuth Time Altitude Azimuth
Cosmos 2058 Rocket 3.9 16:42:22 10° SSE 16:46:19 31° E 16:50:19 10° NNE
Cosmos 1328 4.4 16:43:32 10° NNW 16:47:28 63° W 16:51:22 10° S
NOAA 12 4.1 16:42:30 10° SSE 16:47:46 75° ENE 16:53:07 10° N
FALCON 9 DEB 3.0 16:44:40 10° WSW 16:47:55 88° SSE 16:51:10 10° ENE
CZ-4B R/B 3.3 16:43:37 10° SSE 16:49:14 90° E 16:54:46 10° NNW
ADEOS Rocket 3.5 16:45:03 10° NNE 16:51:34 82° WNW 16:58:47 10° SSW
USA 281 3.3 16:46:42 10° SSE 16:53:16 86° ENE 16:59:53 10° NNW
Cosmos 1689 Rocket 3.8 16:51:53 10° NE 16:53:38 15° E 16:55:22 10° SE
FALCON 9 DEB 4.3 16:53:38 10° NW 16:56:42 29° N 16:59:43 10° ENE
FALCON 9 DEB 3.0 16:54:17 10° WSW 16:57:30 75° NNW 17:00:43 10° ENE
CZ-4C R/B 4.1 16:53:53 10° NNW 16:58:38 21° NNE 17:03:58 10° ENE
Cosmos 2227 Rocket 2.4 16:53:35 10° NNW 16:59:08 52° ENE 17:04:39 10° SE
Cosmos 1892 3.6 16:56:39 10° NNE 17:00:01 27° ENE 17:03:21 10° SE
Cosmos 2263 Rocket 4.0 16:57:25 10° N 17:00:21 14° NE 17:03:17 10° ENE
Cosmos 1110 Rocket 4.3 16:55:18 10° SSW 17:00:31 72° WNW 17:05:45 10° NNE
Cosmos 1939 Rocket 3.4 16:57:53 10° SE 17:01:28 34° ENE 17:05:01 10° N
Cosmos 1302 Rocket 4.1 16:57:22 10° S 17:02:31 59° ESE 17:07:43 10° NNE
H-2A R/B 2.9 17:02:07 10° N 17:06:08 50° WNW 17:10:06 10° SW
USA 307 3.2 17:02:10 10° NW 17:06:22 50° NNE 17:10:16 11° E
COSMO-SKYMED 1 3.2 17:03:59 10° NNE 17:07:59 34° E 17:11:56 10° SSE
Envisat 4.2 17:03:33 10° S 17:08:26 47° W 17:13:21 10° NNW
SAR-Lupe-4 4.0 17:06:17 10° NNE 17:09:42 40° E 17:13:05 10° S
Cosmos 1300 2.7 17:06:37 10° S 17:10:25 89° WNW 17:14:15 10° N
USA 308 3.2 17:07:09 10° NW 17:11:21 52° NNE 17:15:03 13° E
Cosmos 1400 Rocket 2.9 17:08:03 10° S 17:12:05 57° E 17:16:06 10° NNE
Cosmos 1486 Rocket 4.1 17:07:20 10° NNW 17:12:36 55° ENE 17:17:48 10° SE
Cosmos 1697 Rocket 3.5 17:08:48 10° SSE 17:13:36 30° ESE 17:18:27 10° NE
CZ-4B R/B 1.1 17:10:31 10° NNE 17:13:44 81° ESE 17:16:50 10° S
Cosmos 1825 3.6 17:12:54 10° NNE 17:15:36 18° ENE 17:17:29 13° ESE
ERS-2 2.1 17:13:52 10° NNE 17:17:32 84° WNW 17:21:10 10° SSW
Helios 1A Rocket 3.4 17:15:00 10° SE 17:18:47 37° ENE 17:22:35 10° N
Meteor 2-8 Rocket 4.4 17:14:17 10° S 17:20:19 64° E 17:26:23 10° NNE
YAOGAN 1 3.4 17:17:27 10° SE 17:21:12 30° ENE 17:24:58 10° N
S3M 4.4 17:16:02 10° SSE 17:21:36 39° E 17:27:16 10° NNE
BREEZE-M TANK 3.3 17:12:32 10° W 17:22:08 77° S 17:25:00 16° E
Cosmos 1503 Rocket 4.4 17:17:50 10° N 17:22:45 40° ENE 17:27:40 10° SE
NOAA 11 4.3 17:20:38 10° SSE 17:26:05 84° WSW 17:31:33 10° NNW
CZ-2D R/B 3.4 17:23:08 10° SE 17:26:47 46° ENE 17:30:26 10° N
Cosmos 1340 2.6 17:23:08 10° N 17:26:56 86° E 17:30:43 10° S
SAR-Lupe-1 4.0 17:24:01 10° NNE 17:27:34 63° ESE 17:31:05 10° S
Cosmos 44 4.0 17:23:16 10° SW 17:27:42 51° NW 17:32:25 10° NNE
Okean O Rocket 3.1 17:23:58 10° S 17:28:05 41° W 17:32:13 10° NNW
Cosmos 2228 4.2 17:24:46 10° SSW 17:28:50 45° WNW 17:32:59 10° N
CZ-4 R/B 1.7 17:26:01 10° SE 17:29:36 37° ENE 17:33:11 10° N
Cosmos 1726 Rocket 4.2 17:25:20 10° SSW 17:29:38 60° WNW 17:34:00 10° N
Cosmos 1346 Rocket 2.9 17:30:51 10° N 17:34:45 51° ENE 17:38:39 10° SSE
SL-4 R/B 2.2 17:31:20 10° WNW 17:34:46 45° NNE 17:36:32 25° ENE
Aureole 3 2.7 17:32:17 10° SSW 17:35:21 75° W 17:38:20 10° N
Cosmos 2058 3.0 17:31:33 10° N 17:35:33 48° ENE 17:39:31 10° SSE
Cosmos 1354 Rocket 4.3 17:30:33 10° N 17:35:36 44° ENE 17:40:38 10° SE
Cosmos 1980 Rocket 3.1 17:32:47 10° SSE 17:37:17 25° ESE 17:39:22 20° ENE
Cosmos 2151 4.4 17:35:14 10° NNE 17:37:30 19° NE 17:37:30 19° NE
Cosmos 2297 Rocket 2.5 17:33:02 10° NNW 17:38:41 69° WSW 17:44:18 10° SSE
Cosmos 1992 Rocket 4.1 17:34:04 10° S 17:39:04 50° ESE 17:44:06 10° NNE
PSLV R/B 3.9 17:35:59 10° NNE 17:40:07 59° E 17:44:12 10° S
In-Cosmos 22 Rocket 4.2 17:34:54 10° NNW 17:40:19 86° W 17:45:48 10° S
CZ-2C R/B 3.4 17:37:43 10° SE 17:43:19 53° ENE 17:48:44 10° N
Cosmos 1315 Rocket 3.0 17:42:04 10° S 17:45:52 46° E 17:49:44 10° NNE
Cosmos 1553 Rocket 4.0 17:43:30 10° S 17:49:51 87° E 17:56:09 10° N
Cosmos 220 Rocket 3.9 17:47:17 10° SSW 17:51:37 70° ESE 17:55:50 11° NNE
Meteor 2-15 4.3 17:47:22 10° S 17:53:30 75° E 17:59:38 10° NNE
BREEZE-M R/B 3.6 17:51:09 10° WNW 17:55:04 72° NNE 17:59:00 27° E
Meteor 2-10 Rocket 3.4 17:50:27 10° S 17:55:42 74° E 18:00:49 10° NNE
SKYMED 2 3.7 17:51:49 10° N 17:56:11 76° WNW 18:00:30 10° SSW
USA 305 2.8 17:51:55 10° WNW 17:56:15 90° SSW 17:58:11 32° ESE
Cosmos 1455 2.1 17:53:59 10° S 17:57:42 64° E 18:01:30 10° NNE
Cosmos 2360 4.3 17:54:46 10° S 18:00:19 54° ESE 18:04:36 17° NE
SeaSat 1 3.2 18:00:38 31° ENE 18:01:19 32° NE 18:05:41 10° NNW
NOSS 3-4 (A) 4.1 17:55:29 10° NW 18:02:06 48° NE 18:05:39 29° E
NOSS 3-4 (C) 4.1 17:55:35 10° NW 18:02:12 48° NE 18:05:43 29° E
USA 306 2.9 17:58:27 10° WNW 18:02:45 83° SW 18:04:25 36° SE
H-2A R/B 2.2 17:58:29 10° SSE 18:03:46 56° ENE 18:09:06 10° N
Okean-O 2.7 18:00:45 10° SSE 18:05:11 81° WSW 18:09:39 10° NNW
FALCON 9 DEB 4.2 18:04:34 10° W 18:07:33 32° NNW 18:07:57 31° N
MOS 1 Rocket 3.4 18:04:04 10° NNE 18:08:42 52° E 18:13:35 10° S
FALCON 9 DEB 4.2 18:06:35 10° WNW 18:09:30 31° NNW 18:09:47 30° N
Cosmos 2278 3.9 18:05:11 10° S 18:10:35 48° ESE 18:12:46 32° ENE
NOSS 3-3 (A) 3.8 18:05:43 10° SSW 18:11:33 82° SE 18:16:10 21° NE
NOSS 3-3 (C) 3.8 18:05:50 10° SSW 18:11:40 81° SE 18:16:14 21° NE
USA 215 4.0 18:10:10 27° ENE 18:13:05 40° NNE 18:19:05 10° NW
ATLAS 5 CENTAUR R/B 4.2 18:13:46 10° NNW 18:15:43 12° N 18:17:34 10° NNE
Cosmos 1745 Rocket 4.2 18:09:40 10° NNW 18:15:59 77° W 18:22:19 10° S
GEOS 3 Rocket 3.7 18:17:20 42° E 18:18:54 59° NE 18:24:13 10° NNW
Cosmos 44 Rocket 3.2 18:14:22 10° SSW 18:19:04 64° ESE 18:19:57 53° ENE
Cosmos 1408 3.3 18:15:32 10° NNW 18:19:06 52° W 18:22:41 10° S
Lacrosse 5 3.0 18:14:56 10° NW 18:19:23 30° NNE 18:20:11 28° NNE
Cosmos 2082 3.9 18:13:50 10° NNW 18:19:34 72° WSW 18:25:15 10° SSE
ARGOS 3.2 18:17:21 33° SE 18:19:37 57° ENE 18:24:57 10° N
Meteor 2-3 Rocket 4.2 18:14:37 10° N 18:19:36 38° ENE 18:19:36 38° ENE
ATLAS 2AS CENTAUR R/B 3.1 18:16:50 10° NW 18:24:13 51° NE 18:26:17 40° E
Cosmos 1689 Rocket 4.4 18:22:23 10° NNW 18:24:49 24° WNW 18:27:14 10° SW
Cosmos 1076 Rocket 4.1 18:29:20 10° NNW 18:33:30 55° W 18:37:39 10° S
FALCON 9 DEB 4.3 18:30:38 10° WNW 18:32:58 40° NW 18:32:58 40° NW
Cosmos 2369 3.8 18:29:20 10° SSW 18:35:03 77° WNW 18:39:11 20° NNE
SJ 16-02 3.9 18:33:43 10° N 18:33:43 10° N 18:33:43 10° N
Cosmos 1777 Rocket 4.0 18:33:48 10° NNW 18:38:35 60° NE 18:38:35 60° NE
CSL-04 Rocket 3.8 18:35:29 10° S 18:41:02 75° WSW 18:46:34 10° NNW
Cosmos 2227 Rocket 4.2 18:38:12 10° NW 18:42:52 27° WSW 18:47:31 10° SSW
Cosmos 1709 Rocket 4.1 18:39:06 10° N 18:45:31 80° W 18:51:53 10° S
Cosmos 2263 Rocket 2.3 18:39:57 10° NNW 18:45:08 56° NE 18:45:08 56° NE
USA 307 3.8 18:42:20 10° WNW 18:46:24 42° SW 18:46:28 42° SW
CZ-4C R/B 3.3 18:42:26 10° NNW 18:49:00 43° NE 18:49:38 42° NE
Cosmos 1825 3.7 18:47:45 10° NNW 18:51:13 35° W 18:52:23 28° SW
USA 308 4.0 18:47:21 10° WNW 18:51:15 39° SW 18:51:15 39° SW
YAOGAN 1 4.4 18:53:27 10° SSW 18:57:15 30° W 19:01:05 10° NNW
Cosmos 1697 Rocket 3.6 18:51:57 10° SW 18:57:21 47° WNW 19:01:26 17° NNE
CZ-4 R/B 4.0 19:02:02 10° SW 19:04:48 18° W 19:07:33 10° NW
Cosmos 2315 Rocket 4.3 19:04:30 10° SSW 19:10:39 65° WNW 19:16:50 10° N
Atlas Centaur 2 4.4 19:05:07 10° WSW 19:11:28 24° S 19:12:40 23° S
SL-4 R/B 4.3 19:10:49 10° WNW 19:12:08 21° WNW 19:12:08 21° WNW
Cosmos 1980 Rocket 2.7 19:15:24 10° SW 19:20:55 55° WNW 19:21:13 54° NW
SeaSat 1 4.0 19:40:26 32° WNW 19:40:26 32° WNW 19:43:26 10° NW
H-2A R/B 4.3 19:39:15 10° SW 19:43:30 23° W 19:47:49 10° NW
NOSS 3-4 (A) 4.4 19:46:24 10° NW 19:53:07 51° WSW 19:53:07 51° WSW
NOSS 3-4 (C) 4.4 19:46:30 10° NW 19:53:11 52° WSW 19:53:11 52° WSW
USA 215 3.9 19:57:31 48° NW 19:57:31 48° NW 20:02:08 10° NW
Lacrosse 5 4.3 19:57:57 10° NW 19:59:23 19° NW 19:59:23 19° NW
ATLAS 2AS CENTAUR R/B 3.8 20:08:11 10° NW 20:13:44 41° W 20:13:44 41° W
CZ-4C R/B 4.1 20:30:50 10° NW 20:34:50 36° WNW 20:34:50 36° WNW
